Date String (YYYY-MM-DD hh:mm:ss) UTC,Instrument flags,absolute air pressure of the measurement (hPa),sample flow rate (lpm),inlet stack bypass flow (lpm),air temperature of the measurement (°C),ambient temperature measured by the external sensor (°C),aerosol sample conditioner tube jacket temperature (°C),OPC LED temperature (°C),internal box temperature (°C),relative humidity of the measurement (%),span deviation,mass concentration of particles derived from Lorenz-Mie calculation of OPC scattering (μg/m³),mass concentration of particles derived from Lorenz-Mie calculation of OPC scattering (μg/m³),mass concentration of particles derived from Lorenz-Mie calculation of OPC scattering (μg/m³)
DateTimeUTC,F1_M11,P_M11,Q1_M11,Q2_M11,T1_M11,T2_M11,T3_M11,T4_M11,T5_M11,U1_M11,ZSPAN_M11,X0_M11,X2_M11,X1_M11
2024-02-26 02:00:00,SystemResetWarning,0822.2,5.00,000.00,022.5,021.5,000.0,030.8,024.1,07.8,0000.0,0004.08,0001.81,0000.96
2024-02-26 02:01:00,SystemResetWarning,0822.2,5.00,000.00,022.5,021.5,000.0,030.8,024.1,07.8,0000.0,0004.25,0001.86,0000.97
2024-02-26 02:02:00,SystemResetWarning,0822.3,5.00,000.00,022.5,021.5,000.0,030.8,024.1,07.8,0000.0,0004.33,0001.87,0000.96
2024-02-26 02:03:00,SystemResetWarning,0822.3,5.00,000.00,022.4,021.5,000.0,030.8,024.1,07.9,0000.0,0004.51,0001.86,0000.96
2024-02-26 02:04:00,SystemResetWarning,0822.2,5.00,000.00,022.4,021.5,000.0,030.8,024.1,07.9,0000.0,0006.10,0001.82,0000.96
2024-02-26 02:05:00,SystemResetWarning,0822.2,5.00,000.00,022.4,021.5,000.0,030.8,024.0,07.9,0000.0,0006.31,0001.88,0000.97
2024-02-26 02:06:00,SystemResetWarning,0822.1,5.00,000.00,022.4,021.5,000.0,030.8,024.0,07.9,0000.0,0006.35,0001.89,0000.96
2024-02-26 02:07:00,SystemResetWarning,0822.2,5.00,000.00,022.4,021.5,000.0,030.7,024.0,08.0,0000.0,0007.11,0001.90,0000.97
2024-02-26 02:08:00,SystemResetWarning,0822.3,5.01,000.00,022.4,021.4,000.0,030.7,024.0,08.1,0000.0,0007.65,0001.89,0000.98
2024-02-26 02:09:00,SystemResetWarning,0822.2,5.01,000.00,022.4,021.4,000.0,030.7,024.0,08.1,0000.0,0008.32,0001.92,0000.98
2024-02-26 02:10:00,SystemResetWarning,0822.1,5.00,000.00,022.4,021.4,000.0,030.7,024.0,08.1,0000.0,0008.54,0001.89,0000.99
2024-02-26 02:11:00,SystemResetWarning,0822.3,5.00,000.00,022.4,021.4,000.0,030.7,024.0,08.1,0000.0,0008.77,0001.85,0001.00
2024-02-26 02:12:00,SystemResetWarning,0822.2,5.00,000.00,022.3,021.4,000.0,030.7,024.0,08.2,0000.0,0008.93,0001.82,0001.00
2024-02-26 02:13:00,SystemResetWarning,0822.1,5.00,000.00,022.3,021.4,000.0,030.7,024.0,08.3,0000.0,0009.31,0001.82,0001.00
2024-02-26 02:14:00,SystemResetWarning,0822.3,5.00,000.00,022.3,021.4,000.0,030.7,024.0,08.3,0000.0,0009.27,0001.86,0001.01
2024-02-26 02:15:00,SystemResetWarning,0822.3,4.99,000.00,022.3,021.4,000.0,030.7,024.0,08.4,0000.0,0008.30,0001.85,0001.02
2024-02-26 02:16:00,SystemResetWarning,0822.4,4.99,000.00,022.3,021.4,000.0,030.7,024.0,08.3,0000.0,0008.47,0001.77,0001.01
2024-02-26 02:17:00,SystemResetWarning,0822.3,5.01,000.00,022.3,021.4,000.0,030.6,023.9,08.4,0000.0,0008.33,0001.71,0001.01
2024-02-26 02:18:00,SystemResetWarning,0822.3,5.01,000.00,022.3,021.4,000.0,030.6,023.9,08.4,0000.0,0007.79,0001.66,0001.00
2024-02-26 02:19:00,SystemResetWarning,0822.2,5.00,000.00,022.3,021.4,000.0,030.6,023.9,08.5,0000.0,0007.78,0001.64,0001.00
2024-02-26 02:20:00,SystemResetWarning,0822.3,5.00,000.00,022.3,021.4,000.0,030.6,023.9,08.6,0000.0,0007.51,0001.58,0001.00
2024-02-26 02:21:00,SystemResetWarning,0822.2,5.00,000.00,022.3,021.4,000.0,030.6,023.9,08.6,0000.0,0007.05,0001.53,0000.99
2024-02-26 02:22:00,SystemResetWarning,0822.3,5.00,000.00,022.3,021.4,000.0,030.6,023.9,08.7,0000.0,0006.40,0001.56,0000.98
2024-02-26 02:23:00,SystemResetWarning,0822.3,4.99,000.00,022.3,021.3,000.0,030.6,023.9,08.6,0000.0,0006.14,0001.62,0001.00
2024-02-26 02:24:00,SystemResetWarning,0822.3,5.00,000.00,022.2,021.3,000.0,030.6,023.9,08.6,0000.0,0005.87,0001.66,0001.00
2024-02-26 02:25:00,SystemResetWarning,0822.4,5.00,000.00,022.2,021.3,000.0,030.6,023.9,08.7,0000.0,0006.81,0001.65,0001.00
2024-02-26 02:26:00,SystemResetWarning,0822.2,5.00,000.00,022.2,021.3,000.0,030.6,023.9,08.7,0000.0,0008.34,0001.67,0001.01
2024-02-26 02:27:00,SystemResetWarning,0822.2,5.01,000.00,022.2,021.3,000.0,030.6,023.9,08.7,0000.0,0008.12,0001.69,0001.01
2024-02-26 02:28:00,SystemResetWarning,0822.3,5.00,000.00,022.2,021.3,000.0,030.6,023.9,08.7,0000.0,0007.99,0001.67,0001.01
2024-02-26 02:29:00,SystemResetWarning,0822.3,4.99,000.00,022.2,021.3,000.0,030.6,023.9,08.7,0000.0,0008.01,0001.65,0001.01
2024-02-26 02:30:00,SystemResetWarning,0822.2,4.99,000.00,022.2,021.3,000.0,030.6,023.9,08.8,0000.0,0007.78,0001.66,0001.02
2024-02-26 02:31:00,SystemResetWarning,0822.3,4.99,000.00,022.2,021.3,000.0,030.5,023.9,08.8,0000.0,0007.34,0001.68,0001.03
2024-02-26 02:32:00,SystemResetWarning,0822.2,5.01,000.00,022.2,021.3,000.0,030.5,023.9,08.8,0000.0,0007.80,0001.72,0001.04
2024-02-26 02:33:00,SystemResetWarning,0822.3,4.99,000.00,022.2,021.3,000.0,030.5,023.9,08.8,0000.0,0007.81,0001.69,0001.03
2024-02-26 02:34:00,SystemResetWarning,0822.2,4.99,000.00,022.2,021.3,000.0,030.5,023.8,08.9,0000.0,0007.76,0001.60,0001.02
2024-02-26 02:35:00,SystemResetWarning,0822.1,5.00,000.00,022.2,021.3,000.0,030.5,023.8,08.9,0000.0,0007.53,0001.54,0001.01
2024-02-26 02:36:00,SystemResetWarning,0822.2,5.01,000.00,022.2,021.3,000.0,030.5,023.8,08.9,0000.0,0006.80,0001.51,0001.02
2024-02-26 02:37:00,SystemResetWarning,0822.3,5.01,000.00,022.2,021.3,000.0,030.5,023.8,08.9,0000.0,0004.27,0001.49,0001.02
2024-02-26 02:38:00,SystemResetWarning,0822.4,5.00,000.00,022.1,021.3,000.0,030.5,023.8,09.0,0000.0,0004.20,0001.48,0001.02
2024-02-26 02:39:00,SystemResetWarning,0822.3,4.99,000.00,022.1,021.3,000.0,030.5,023.8,09.0,0000.0,0004.22,0001.50,0001.03
2024-02-26 02:40:00,SystemResetWarning,0822.3,4.99,000.00,022.1,021.3,000.0,030.5,023.8,09.0,0000.0,0004.73,0001.51,0001.03
2024-02-26 02:41:00,SystemResetWarning,0822.3,5.00,000.00,022.1,021.3,000.0,030.5,023.8,09.0,0000.0,0005.40,0001.52,0001.03
2024-02-26 02:42:00,SystemResetWarning,0822.4,5.01,000.00,022.1,021.3,000.0,030.5,023.8,09.0,0000.0,0004.68,0001.50,0001.04
2024-02-26 02:43:00,SystemResetWarning,0822.2,5.00,000.00,022.1,021.2,000.0,030.5,023.8,09.0,0000.0,0004.08,0001.49,0001.04
2024-02-26 02:44:00,SystemResetWarning,0822.3,5.00,000.00,022.1,021.2,000.0,030.5,023.7,09.0,0000.0,0004.06,0001.51,0001.05
2024-02-26 02:45:00,SystemResetWarning,0822.4,4.99,000.00,022.1,021.2,000.0,030.4,023.7,09.1,0000.0,0004.09,0001.54,0001.06
2024-02-26 02:46:00,SystemResetWarning,0822.4,5.00,000.00,022.1,021.2,000.0,030.4,023.8,09.1,0000.0,0004.69,0001.61,0001.07
2024-02-26 02:47:00,SystemResetWarning,0822.2,5.00,000.00,022.1,021.2,000.0,030.4,023.8,09.1,0000.0,0004.83,0001.68,0001.07
2024-02-26 02:48:00,SystemResetWarning,0822.2,5.00,000.00,022.1,021.2,000.0,030.4,023.7,09.1,0000.0,0004.74,0001.68,0001.07
2024-02-26 02:49:00,SystemResetWarning,0822.3,5.00,000.00,022.1,021.2,000.0,030.4,023.7,09.1,0000.0,0004.71,0001.66,0001.07
2024-02-26 02:50:00,SystemResetWarning,0822.3,5.00,000.00,022.1,021.2,000.0,030.4,023.7,09.2,0000.0,0005.07,0001.63,0001.07
2024-02-26 02:51:00,SystemResetWarning,0822.2,5.01,000.00,022.1,021.2,000.0,030.4,023.7,09.2,0000.0,0005.63,0001.65,0001.07
2024-02-26 02:52:00,SystemResetWarning,0822.2,5.01,000.00,022.0,021.2,000.0,030.4,023.7,09.2,0000.0,0004.84,0001.63,0001.07
2024-02-26 02:53:00,SystemResetWarning,0822.4,4.99,000.00,022.0,021.2,000.0,030.4,023.7,09.2,0000.0,0004.82,0001.62,0001.07
2024-02-26 02:54:00,SystemResetWarning,0822.3,4.99,000.00,022.0,021.1,000.0,030.4,023.7,09.2,0000.0,0004.83,0001.62,0001.06
2024-02-26 02:55:00,SystemResetWarning,0822.2,5.01,000.00,022.0,021.1,000.0,030.4,023.7,09.2,0000.0,0005.12,0001.62,0001.07
2024-02-26 02:56:00,SystemResetWarning,0822.2,5.01,000.00,022.0,021.1,000.0,030.4,023.7,09.2,0000.0,0006.40,0001.61,0001.06
2024-02-26 02:57:00,SystemResetWarning,0822.2,5.00,000.00,022.0,021.1,000.0,030.3,023.6,09.2,0000.0,0006.02,0001.61,0001.05
2024-02-26 02:58:00,SystemResetWarning,0822.4,4.98,000.00,022.0,021.1,000.0,030.3,023.6,09.3,0000.0,0005.65,0001.50,0001.04
2024-02-26 02:59:00,SystemResetWarning,0822.4,5.00,000.00,022.0,021.1,000.0,030.3,023.6,09.3,0000.0,0005.59,0001.49,0001.05
